Location: ??
(34.7252°N, 135.5457°E)
Time: 09:08:11
(UTC+00:00)

SAR-Lupe-4 - Pass Details

Date: 24 September 2020
Orbit: 482 x 484 km, 98.2° (Epoch: 09 October)

Event Time Altitude Azimuth Distance (km) Brightness Sun altitude
Rises 20:14:33 0° 185° (S) 2,532 7.1 -7.7°
Reaches altitude 10° 20:16:44 10° 195° (SSW) 1,656 6.1 -7.3°
Maximum altitude 20:19:58 33° 261° (W) 832 4.2 -6.6°
Drops below altitude 10° 20:23:14 10° 327° (NNW) 1,667 6.0 -5.9°
Sets 20:25:27 0° 337° (NNW) 2,550 7.0 -5.5°
